This is the latest recevied weather packets stored in our database for station/object N5ATR. If no packets are shown the sender has not sent any weather packets the latest 10 day(s).
| Time | Temp. | Humidity | Pressure | Rain* | Wind** | Luminosity | Snow |
|---|---|---|---|---|---|---|---|
| 1777940461 | 18.33° C | 21% | 1010.6 hPa | 0 mm | - | 61 W/m² | - |
| 1777940158 | 18.33° C | 21% | 1010.7 hPa | 0 mm | - | 78 W/m² | - |
| 1777939855 | 18.33° C | 21% | 1010.8 hPa | 0 mm | - | 79 W/m² | - |
| 1777939552 | 18.89° C | 21% | 1010.8 hPa | 0 mm | - | 107 W/m² | - |
| 1777939250 | 18.89° C | 21% | 1010.5 hPa | 0 mm | - | 105 W/m² | - |
| 1777938946 | 18.89° C | 21% | 1010.9 hPa | 0 mm | - | 100 W/m² | - |
| 1777938643 | 18.89° C | 20% | 1010.8 hPa | 0 mm | - | 99 W/m² | - |
| 1777938340 | 18.89° C | 20% | 1010.7 hPa | 0 mm | - | 106 W/m² | - |
| 1777938037 | 18.89° C | 20% | 1010.3 hPa | 0 mm | - | 103 W/m² | - |
| 1777937732 | 18.89° C | 20% | 1010.7 hPa | 0 mm | - | 111 W/m² | - |
| 1777937429 | 18.89° C | 20% | 1010.7 hPa | 0 mm | - | 130 W/m² | - |
| 1777937126 | 18.89° C | 20% | 1010.5 hPa | 0 mm | - | 134 W/m² | - |
| 1777936824 | 18.89° C | 19% | 1010.7 hPa | 0 mm | - | 124 W/m² | - |
| 1777936520 | 18.89° C | 19% | 1010.6 hPa | 0 mm | - | 132 W/m² | - |
| 1777936216 | 18.89° C | 19% | 1010.6 hPa | 0 mm | - | 132 W/m² | - |
| 1777935913 | 19.44° C | 19% | 1010.5 hPa | 0 mm | - | 146 W/m² | - |
| 1777935612 | 19.44° C | 19% | 1010.3 hPa | 0 mm | - | 178 W/m² | - |
| 1777935308 | 19.44° C | 19% | 1010.6 hPa | 0 mm | - | 183 W/m² | - |
| 1777935006 | 19.44° C | 21% | 1010.6 hPa | 0 mm | - | 184 W/m² | - |
| 1777934702 | 19.44° C | 21% | 1011.1 hPa | 0 mm | - | 198 W/m² | - |
| 1777934399 | 20° C | 21% | 1010.8 hPa | 0 mm | - | 216 W/m² | - |
| 1777934095 | 20° C | 22% | 1010.9 hPa | 0 mm | - | 254 W/m² | - |
| 1777933791 | 20° C | 22% | 1010.9 hPa | 0 mm | - | 272 W/m² | - |
| 1777933489 | 20.56° C | 21% | 1010.9 hPa | 0 mm | - | 343 W/m² | - |
| 1777933186 | 20° C | 22% | 1011.1 hPa | 0 mm | - | 380 W/m² | - |
* Rain latest hour (hover to see other rain measurements)
** Current wind speed in m/s (hover to see current wind gust speed)